Location: ???? ?????????
(31.1304°N, 31.7111°E)
Time: 19:40:43
(UTC+00:00)

Courier 1B Rocket - Visible Passes

Search period start: 04 March 2021 00:00
Search period end: 14 March 2021 00:00
Orbit: 920 x 1202 km, 28.3° (Epoch: 03 March)

Date Brightness Start Highest point End Pass type
(mag) Time Alt. Az. Time Alt. Az. Time Alt. Az.
04 Mar 6.3 17:26:19 10° W 17:33:26 39° SSW 17:37:48 22° SSE visible
04 Mar 7.6 19:22:28 10° WSW 19:24:11 13° SW 19:24:11 13° SW visible
05 Mar 6.1 16:24:55 10° W 16:32:15 49° SSW 16:39:42 10° SE visible
05 Mar 7.0 18:19:49 10° WSW 18:25:29 22° SSW 18:27:13 20° S visible
06 Mar 6.8 17:17:53 10° W 17:24:23 30° SSW 17:30:18 12° SSE visible
07 Mar 6.5 16:16:20 10° W 16:23:15 38° SSW 16:30:21 10° SE visible
07 Mar 7.4 18:12:25 10° WSW 18:16:23 15° SSW 18:19:49 11° S visible
08 Mar 7.3 17:09:49 10° WSW 17:15:20 21° SSW 17:20:54 10° SSE visible
10 Mar 7.6 17:02:34 10° WSW 17:06:16 14° SSW 17:10:00 10° S visible
